Location: Newark
(54.9353°N, 24.1167°E)
Time: 08:50:36
(UTC+00:00)

Envisat - Pass Details

Date: 05 October 2020
Orbit: 764 x 766 km, 98.1° (Epoch: 23 October)

Event Time Altitude Azimuth Distance (km) Brightness Sun altitude
Rises 03:53:35 0° 19° (NNE) 3,246 6.5 -6.6°
Reaches altitude 10° 03:56:05 10° 28° (NNE) 2,315 5.9 -6.3°
Maximum altitude 04:00:48 36° 95° (E) 1,192 4.9 -5.6°
Drops below altitude 10° 04:05:28 10° 162° (SSE) 2,299 5.7 -4.9°
Sets 04:07:56 0° 171° (S) 3,220 6.4 -4.6°
